| time (UTC) | temp F | wind direction | speed MPH | gust MPH | rain 1hr in | rain 24hr in | rain mn in | humidity % | barometer mb |
| 20260903205730 | 64 | 224 | 3.0 | 3.0 | 0.00 | 0.00 | 0.00 | 66 | 1012.1 |
| 20260903205229 | 64 | 180 | 4.0 | 5.0 | 0.00 | 0.00 | 0.00 | 68 | 1012.1 |
| 20260903204725 | 64 | 106 | 3.0 | 3.0 | 0.00 | 0.00 | 0.00 | 64 | 1011.8 |
| 20260903204221 | 64 | 133 | 3.0 | 3.0 | 0.00 | 0.00 | 0.00 | 66 | 1012.0 |
| 20260903203717 | 64 | 169 | 4.0 | 6.0 | 0.00 | 0.00 | 0.00 | 67 | 1011.9 |
| 20260903203212 | 64 | 279 | 1.0 | 1.0 | 0.00 | 0.00 | 0.00 | 67 | 1011.8 |
| 20260903202706 | 64 | 152 | 3.0 | 3.0 | 0.00 | 0.00 | 0.00 | 64 | 1011.9 |
| 20260903202202 | 64 | 355 | 1.0 | 2.0 | 0.00 | 0.00 | 0.00 | 65 | 1012.0 |
| 20260903201701 | 64 | 208 | 2.0 | 3.0 | 0.00 | 0.00 | 0.00 | 66 | 1011.8 |
| 20260903201156 | 64 | 54 | 0.0 | 1.0 | 0.00 | 0.00 | 0.00 | 66 | 1011.9 |
| 20260903200650 | 64 | 352 | 0.0 | 0.0 | 0.00 | 0.00 | 0.00 | 64 | 1012.0 |
| 20260903200146 | 64 | 77 | 2.0 | 2.0 | 0.00 | 0.00 | 0.00 | 68 | 1011.9 |
| 20260903195642 | 64 | 260 | 0.0 | 1.0 | 0.00 | 0.00 | 0.00 | 68 | 1012.0 |
| 20260903195138 | 64 | 34 | 1.0 | 1.0 | 0.00 | 0.00 | 0.00 | 68 | 1011.8 |
| 20260903194638 | 64 | 300 | 0.0 | 0.0 | 0.00 | 0.00 | 0.00 | 68 | 1011.9 |
| 20260903194138 | 64 | 306 | 0.0 | 0.0 | 0.00 | 0.00 | 0.00 | 67 | 1011.8 |
| 20260903193633 | 64 | 291 | 0.0 | 0.0 | 0.00 | 0.00 | 0.00 | 66 | 1011.6 |
| 20260903193129 | 65 | 225 | 3.0 | 3.0 | 0.00 | 0.00 | 0.00 | 68 | 1011.6 |
| 20260903192626 | 65 | 316 | 0.0 | 0.0 | 0.00 | 0.00 | 0.00 | 67 | 1011.6 |
| 20260903192120 | 64 | 351 | 0.0 | 0.0 | 0.00 | 0.00 | 0.00 | 70 | 1011.6 |
| 20260903191616 | 64 | 210 | 2.0 | 2.0 | 0.00 | 0.00 | 0.00 | 70 | 1011.5 |
| 20260903191111 | 64 | 310 | 0.0 | 0.0 | 0.00 | 0.00 | 0.00 | 72 | 1011.6 |
| 20260903190610 | 63 | 327 | 0.0 | 1.0 | 0.00 | 0.00 | 0.00 | 70 | 1011.7 |
| 20260903190105 | 63 | 34 | 2.0 | 2.0 | 0.00 | 0.00 | 0.00 | 70 | 1011.7 |
| 20260903185600 | 63 | 339 | 0.0 | 0.0 | 0.00 | 0.00 | 0.00 | 70 | 1011.9 |
| 20260903185056 | 63 | 190 | 2.0 | 3.0 | 0.00 | 0.00 | 0.00 | 74 | 1011.8 |
| 20260903184552 | 63 | 291 | 1.0 | 1.0 | 0.00 | 0.00 | 0.00 | 73 | 1011.8 |
| 20260903184047 | 63 | 302 | 0.0 | 0.0 | 0.00 | 0.00 | 0.00 | 72 | 1011.7 |
| 20260903183546 | 62 | 170 | 3.0 | 5.0 | 0.00 | 0.00 | 0.00 | 73 | 1011.8 |
| 20260903183041 | 62 | 228 | 2.0 | 2.0 | 0.00 | 0.00 | 0.00 | 73 | 1011.6 |
| 20260903182539 | 62 | 335 | 0.0 | 0.0 | 0.00 | 0.00 | 0.00 | 74 | 1011.7 |
| 20260903182037 | 62 | 167 | 3.0 | 3.0 | 0.00 | 0.00 | 0.00 | 74 | 1011.6 |
| 20260903181534 | 62 | 105 | 4.0 | 5.0 | 0.00 | 0.00 | 0.00 | 72 | 1011.5 |
| 20260903181034 | 61 | 118 | 1.0 | 2.0 | 0.00 | 0.00 | 0.00 | 74 | 1011.7 |
| 20260903180530 | 61 | 138 | 3.0 | 3.0 | 0.00 | 0.00 | 0.00 | 78 | 1011.6 |
| 20260903180029 | 61 | 260 | 1.0 | 2.0 | 0.00 | 0.00 | 0.00 | 76 | 1011.6 |
| 20260903175528 | 61 | 184 | 3.0 | 5.0 | 0.00 | 0.00 | 0.00 | 76 | 1011.5 |
| 20260903175028 | 61 | 195 | 3.0 | 3.0 | 0.00 | 0.00 | 0.00 | 75 | 1011.5 |
| 20260903174523 | 61 | 285 | 1.0 | 1.0 | 0.00 | 0.00 | 0.00 | 76 | 1011.4 |
| 20260903174018 | 61 | 199 | 4.0 | 5.0 | 0.00 | 0.00 | 0.00 | 75 | 1011.6 |
| 20260903173512 | 61 | 166 | 2.0 | 2.0 | 0.00 | 0.00 | 0.00 | 77 | 1011.5 |
| 20260903173009 | 61 | 194 | 2.0 | 3.0 | 0.00 | 0.00 | 0.00 | 75 | 1011.3 |
| 20260903172503 | 61 | 331 | 0.0 | 0.0 | 0.00 | 0.00 | 0.00 | 77 | 1011.3 |
| 20260903171959 | 60 | 68 | 3.0 | 3.0 | 0.00 | 0.00 | 0.00 | 75 | 1011.3 |
| 20260903171454 | 60 | 163 | 4.0 | 5.0 | 0.00 | 0.00 | 0.00 | 77 | 1011.3 |
| 20260903170948 | 60 | 352 | 1.0 | 1.0 | 0.00 | 0.00 | 0.00 | 77 | 1011.5 |
| 20260903170443 | 59 | 187 | 1.0 | 2.0 | 0.00 | 0.00 | 0.00 | 78 | 1011.3 |
| 20260903165943 | 59 | 167 | 3.0 | 3.0 | 0.00 | 0.00 | 0.00 | 78 | 1011.4 |
| 20260903165442 | 59 | 168 | 1.0 | 2.0 | 0.00 | 0.00 | 0.00 | 78 | 1011.4 |
| 20260903164937 | 59 | 142 | 1.0 | 2.0 | 0.00 | 0.00 | 0.00 | 77 | 1011.5 |
| 20260903164432 | 59 | 159 | 3.0 | 5.0 | 0.00 | 0.00 | 0.00 | 78 | 1011.2 |
| 20260903163931 | 59 | 295 | 1.0 | 1.0 | 0.00 | 0.00 | 0.00 | 77 | 1011.3 |
| 20260903163428 | 58 | 173 | 2.0 | 2.0 | 0.00 | 0.00 | 0.00 | 81 | 1011.4 |
| 20260903162924 | 57 | 319 | 1.0 | 1.0 | 0.00 | 0.00 | 0.00 | 83 | 1011.4 |
| 20260903162420 | 56 | 341 | 0.0 | 0.0 | 0.00 | 0.00 | 0.00 | 86 | 1011.4 |
| 20260903161915 | 56 | 288 | 1.0 | 1.0 | 0.00 | 0.00 | 0.00 | 86 | 1011.5 |
| 20260903161410 | 55 | 178 | 2.0 | 3.0 | 0.00 | 0.00 | 0.00 | 86 | 1011.5 |
| 20260903160906 | 55 | 309 | 0.0 | 0.0 | 0.00 | 0.00 | 0.00 | 89 | 1011.5 |
| 20260903160405 | 55 | 233 | 2.0 | 2.0 | 0.00 | 0.00 | 0.00 | 87 | 1011.4 |
| 20260903155904 | 55 | 318 | 0.0 | 1.0 | 0.00 | 0.00 | 0.00 | 87 | 1011.2 |
| 20260903155359 | 54 | 181 | 3.0 | 5.0 | 0.00 | 0.00 | 0.00 | 87 | 1011.3 |
| 20260903154855 | 54 | 211 | 2.0 | 2.0 | 0.00 | 0.00 | 0.00 | 87 | 1011.4 |
| 20260903154351 | 54 | 204 | 2.0 | 2.0 | 0.00 | 0.00 | 0.00 | 87 | 1011.1 |
| 20260903153851 | 54 | 278 | 0.0 | 1.0 | 0.00 | 0.00 | 0.00 | 88 | 1011.0 |
| 20260903153347 | 54 | 245 | 2.0 | 2.0 | 0.00 | 0.00 | 0.00 | 87 | 1011.1 |
| 20260903152843 | 54 | 195 | 1.0 | 2.0 | 0.00 | 0.00 | 0.00 | 87 | 1011.3 |
| 20260903152338 | 54 | 200 | 3.0 | 3.0 | 0.00 | 0.00 | 0.00 | 87 | 1011.2 |
| 20260903151833 | 53 | 3 | 1.0 | 1.0 | 0.00 | 0.00 | 0.00 | 87 | 1011.0 |
| 20260903151329 | 53 | 176 | 3.0 | 3.0 | 0.00 | 0.00 | 0.00 | 88 | 1011.2 |
| 20260903150828 | 53 | 143 | 2.0 | 2.0 | 0.00 | 0.00 | 0.00 | 88 | 1011.1 |
| 20260903150323 | 53 | 278 | 1.0 | 1.0 | 0.00 | 0.00 | 0.00 | 88 | 1011.0 |
| 20260903145818 | 53 | 261 | 1.0 | 1.0 | 0.00 | 0.00 | 0.00 | 89 | 1010.8 |
| 20260903145313 | 53 | 319 | 0.0 | 0.0 | 0.00 | 0.00 | 0.00 | 88 | 1011.0 |
| 20260903144813 | 53 | 244 | 2.0 | 2.0 | 0.00 | 0.00 | 0.00 | 87 | 1011.1 |
| 20260903144308 | 53 | 225 | 2.0 | 2.0 | 0.00 | 0.00 | 0.00 | 88 | 1011.0 |
| 20260903143803 | 52 | 53 | 1.0 | 1.0 | 0.00 | 0.00 | 0.00 | 88 | 1011.0 |
| 20260903143300 | 52 | 218 | 2.0 | 2.0 | 0.00 | 0.00 | 0.00 | 90 | 1010.6 |
| 20260903142755 | 52 | 323 | 0.0 | 0.0 | 0.00 | 0.00 | 0.00 | 90 | 1010.6 |
| 20260903142251 | 52 | 355 | 0.0 | 0.0 | 0.00 | 0.00 | 0.00 | 90 | 1010.6 |
| 20260903141747 | 51 | 290 | 0.0 | 0.0 | 0.00 | 0.00 | 0.00 | 90 | 1010.7 |
| 20260903141242 | 51 | 3 | 0.0 | 1.0 | 0.00 | 0.00 | 0.00 | 91 | 1010.7 |
| 20260903140737 | 51 | 345 | 0.0 | 0.0 | 0.00 | 0.00 | 0.00 | 91 | 1010.7 |
| 20260903140232 | 50 | 319 | 0.0 | 0.0 | 0.00 | 0.00 | 0.00 | 92 | 1010.5 |
| 20260903135728 | 50 | 289 | 1.0 | 1.0 | 0.00 | 0.00 | 0.00 | 94 | 1010.8 |
| 20260903135223 | 50 | 336 | 0.0 | 0.0 | 0.00 | 0.00 | 0.00 | 95 | 1010.4 |
| 20260903134721 | 50 | 346 | 0.0 | 0.0 | 0.00 | 0.00 | 0.00 | 95 | 1010.3 |
| 20260903134218 | 50 | 351 | 0.0 | 0.0 | 0.00 | 0.00 | 0.00 | 95 | 1010.5 |
| 20260903133715 | 50 | 343 | 2.0 | 2.0 | 0.00 | 0.00 | 0.00 | 94 | 1010.3 |
| 20260903133212 | 49 | 348 | 0.0 | 0.0 | 0.00 | 0.00 | 0.00 | 95 | 1010.3 |
| 20260903132711 | 50 | 210 | 2.0 | 2.0 | 0.00 | 0.00 | 0.00 | 93 | 1010.2 |
| 20260903132206 | 50 | 357 | 0.0 | 0.0 | 0.00 | 0.00 | 0.00 | 94 | 1010.3 |
| 20260903131701 | 50 | 219 | 1.0 | 2.0 | 0.00 | 0.00 | 0.00 | 94 | 1010.2 |
| 20260903131201 | 50 | 344 | 0.0 | 0.0 | 0.00 | 0.00 | 0.00 | 93 | 1010.1 |
| 20260903130656 | 50 | 314 | 0.0 | 0.0 | 0.00 | 0.00 | 0.00 | 93 | 1010.1 |
| 20260903130150 | 50 | 69 | 1.0 | 1.0 | 0.00 | 0.00 | 0.00 | 95 | 1010.0 |
| 20260903125648 | 50 | 288 | 1.0 | 1.0 | 0.00 | 0.00 | 0.00 | 96 | 1010.1 |
| 20260903125144 | 50 | 336 | 0.0 | 0.0 | 0.00 | 0.00 | 0.00 | 95 | 1010.0 |
| 20260903124643 | 50 | 349 | 1.0 | 1.0 | 0.00 | 0.00 | 0.00 | 95 | 1010.0 |
| 20260903124137 | 50 | 344 | 0.0 | 0.0 | 0.00 | 0.00 | 0.00 | 94 | 1009.8 |
| 20260903123631 | 50 | 322 | 0.0 | 0.0 | 0.00 | 0.00 | 0.00 | 93 | 1009.8 |
| 20260903123131 | 50 | 323 | 0.0 | 0.0 | 0.00 | 0.00 | 0.00 | 92 | 1009.9 |
| 20260903122631 | 50 | 318 | 0.0 | 0.0 | 0.00 | 0.00 | 0.00 | 92 | 1010.0 |
| 20260903122130 | 50 | 3 | 0.0 | 0.0 | 0.00 | 0.00 | 0.00 | 93 | 1009.8 |
| 20260903121629 | 50 | 271 | 0.0 | 0.0 | 0.00 | 0.00 | 0.00 | 93 | 1009.6 |
| 20260903121126 | 51 | 216 | 1.0 | 2.0 | 0.00 | 0.00 | 0.00 | 92 | 1009.5 |
| 20260903120624 | 51 | 330 | 0.0 | 0.0 | 0.00 | 0.00 | 0.00 | 92 | 1009.8 |
| 20260903120119 | 51 | 294 | 0.0 | 0.0 | 0.00 | 0.00 | 0.00 | 92 | 1009.6 |
| 20260903115617 | 51 | 329 | 0.0 | 0.0 | 0.00 | 0.00 | 0.00 | 91 | 1009.5 |
| 20260903115113 | 52 | 193 | 2.0 | 2.0 | 0.00 | 0.00 | 0.00 | 90 | 1009.5 |
| 20260903114608 | 52 | 207 | 2.0 | 3.0 | 0.00 | 0.00 | 0.00 | 90 | 1009.6 |
| 20260903114103 | 52 | 235 | 0.0 | 0.0 | 0.00 | 0.00 | 0.00 | 88 | 1009.5 |
| 20260903113559 | 53 | 229 | 1.0 | 2.0 | 0.00 | 0.00 | 0.00 | 86 | 1009.4 |
| 20260903113055 | 54 | 199 | 2.0 | 2.0 | 0.00 | 0.00 | 0.00 | 84 | 1009.5 |
| 20260903112551 | 53 | 213 | 2.0 | 2.0 | 0.00 | 0.00 | 0.00 | 85 | 1009.3 |
| 20260903112050 | 54 | 313 | 0.0 | 1.0 | 0.00 | 0.00 | 0.00 | 87 | 1009.1 |
| 20260903111549 | 53 | 322 | 1.0 | 2.0 | 0.00 | 0.00 | 0.00 | 84 | 1009.4 |
| 20260903111046 | 53 | 298 | 1.0 | 1.0 | 0.00 | 0.00 | 0.00 | 88 | 1009.2 |
| 20260903110542 | 54 | 130 | 1.0 | 1.0 | 0.00 | 0.00 | 0.00 | 88 | 1009.3 |
| 20260903110036 | 54 | 132 | 4.0 | 5.0 | 0.00 | 0.00 | 0.00 | 82 | 1009.0 |
| 20260903105531 | 52 | 351 | 0.0 | 1.0 | 0.00 | 0.00 | 0.00 | 92 | 1008.8 |
| 20260903105025 | 53 | 198 | 1.0 | 1.0 | 0.00 | 0.00 | 0.00 | 90 | 1009.0 |
| 20260903104520 | 53 | 58 | 1.0 | 2.0 | 0.00 | 0.00 | 0.00 | 89 | 1009.0 |
| 20260903104016 | 53 | 329 | 0.0 | 0.0 | 0.00 | 0.00 | 0.00 | 91 | 1008.9 |
| 20260903103512 | 53 | 339 | 0.0 | 0.0 | 0.00 | 0.00 | 0.00 | 90 | 1009.0 |
| 20260903103008 | 53 | 313 | 0.0 | 0.0 | 0.00 | 0.00 | 0.00 | 89 | 1008.9 |
| 20260903102503 | 54 | 342 | 0.0 | 0.0 | 0.00 | 0.00 | 0.00 | 88 | 1008.8 |
| 20260903102002 | 54 | 292 | 0.0 | 0.0 | 0.00 | 0.00 | 0.00 | 85 | 1008.9 |
| 20260903101456 | 55 | 170 | 2.0 | 3.0 | 0.00 | 0.00 | 0.00 | 85 | 1008.7 |
| 20260903100952 | 55 | 162 | 2.0 | 2.0 | 0.00 | 0.00 | 0.00 | 82 | 1008.7 |
| 20260903100447 | 55 | 38 | 0.0 | 1.0 | 0.00 | 0.00 | 0.00 | 83 | 1008.7 |
| 20260903095944 | 57 | 279 | 1.0 | 1.0 | 0.00 | 0.00 | 0.00 | 79 | 1008.7 |
| 20260903095438 | 57 | 45 | 0.0 | 0.0 | 0.00 | 0.00 | 0.00 | 75 | 1008.5 |
| 20260903094933 | 58 | 155 | 3.0 | 5.0 | 0.00 | 0.00 | 0.00 | 75 | 1008.7 |
| 20260903094432 | 57 | 0 | 4.0 | 5.0 | 0.00 | 0.00 | 0.00 | 77 | 1008.8 |
| 20260903093929 | 56 | 26 | 1.0 | 1.0 | 0.00 | 0.00 | 0.00 | 80 | 1008.6 |
| 20260903093424 | 56 | 331 | 0.0 | 0.0 | 0.00 | 0.00 | 0.00 | 78 | 1008.7 |
| 20260903092920 | 55 | 195 | 3.0 | 3.0 | 0.00 | 0.00 | 0.00 | 83 | 1008.8 |
| 20260903092419 | 57 | 142 | 1.0 | 1.0 | 0.00 | 0.00 | 0.00 | 82 | 1008.6 |
| 20260903091918 | 58 | 168 | 2.0 | 3.0 | 0.00 | 0.00 | 0.00 | 76 | 1008.6 |
| 20260903091417 | 59 | 23 | 0.0 | 1.0 | 0.00 | 0.00 | 0.00 | 73 | 1008.5 |
| 20260903090912 | 58 | 70 | 0.0 | 1.0 | 0.00 | 0.00 | 0.00 | 73 | 1008.7 |
| 20260903090408 | 58 | 53 | 1.0 | 1.0 | 0.00 | 0.00 | 0.00 | 74 | 1008.7 |
| 20260903085906 | 58 | 151 | 0.0 | 1.0 | 0.00 | 0.00 | 0.00 | 76 | 1008.8 |
| 20260903085405 | 57 | 24 | 2.0 | 2.0 | 0.00 | 0.00 | 0.00 | 79 | 1008.6 |
| 20260903084905 | 56 | 342 | 0.0 | 1.0 | 0.00 | 0.00 | 0.00 | 79 | 1008.7 |
| 20260903084403 | 55 | 1 | 0.0 | 0.0 | 0.00 | 0.00 | 0.00 | 86 | 1008.8 |
| 20260903083859 | 56 | 345 | 0.0 | 0.0 | 0.00 | 0.00 | 0.00 | 86 | 1008.8 |
| 20260903083354 | 56 | 188 | 0.0 | 1.0 | 0.00 | 0.00 | 0.00 | 85 | 1008.6 |
| 20260903082853 | 57 | 347 | 0.0 | 0.0 | 0.00 | 0.00 | 0.00 | 82 | 1009.0 |
| 20260903082348 | 56 | 254 | 1.0 | 1.0 | 0.00 | 0.00 | 0.00 | 83 | 1008.9 |
| 20260903081844 | 58 | 19 | 0.0 | 0.0 | 0.00 | 0.00 | 0.00 | 81 | 1008.6 |
| 20260903081339 | 58 | 17 | 1.0 | 1.0 | 0.00 | 0.00 | 0.00 | 78 | 1008.6 |
| 20260903080835 | 56 | 9 | 1.0 | 1.0 | 0.00 | 0.00 | 0.00 | 83 | 1008.6 |
| 20260903080332 | 57 | 352 | 0.0 | 0.0 | 0.00 | 0.00 | 0.00 | 83 | 1009.0 |
| 20260903075831 | 58 | 263 | 1.0 | 1.0 | 0.00 | 0.00 | 0.00 | 79 | 1008.8 |
| 20260903075327 | 59 | 62 | 1.0 | 1.0 | 0.00 | 0.00 | 0.00 | 77 | 1008.7 |
| 20260903074827 | 58 | 158 | 2.0 | 2.0 | 0.00 | 0.00 | 0.00 | 76 | 1008.7 |
| 20260903074321 | 58 | 355 | 0.0 | 0.0 | 0.00 | 0.00 | 0.00 | 77 | 1008.5 |
| 20260903073817 | 58 | 150 | 2.0 | 3.0 | 0.00 | 0.00 | 0.00 | 77 | 1008.5 |
| 20260903073312 | 58 | 28 | 0.0 | 1.0 | 0.00 | 0.00 | 0.00 | 77 | 1008.3 |
| 20260903072808 | 58 | 68 | 4.0 | 6.0 | 0.00 | 0.00 | 0.00 | 77 | 1008.3 |
| 20260903072306 | 59 | 246 | 1.0 | 1.0 | 0.00 | 0.00 | 0.00 | 77 | 1008.3 |
| 20260903071801 | 59 | 350 | 0.0 | 0.0 | 0.00 | 0.00 | 0.00 | 76 | 1008.2 |
| 20260903071256 | 59 | 22 | 4.0 | 6.0 | 0.00 | 0.00 | 0.00 | 75 | 1008.2 |
| 20260903070756 | 59 | 339 | 0.0 | 0.0 | 0.00 | 0.00 | 0.00 | 75 | 1008.1 |
| 20260903070252 | 59 | 18 | 0.0 | 1.0 | 0.00 | 0.00 | 0.00 | 77 | 1008.1 |
| 20260903065747 | 58 | 178 | 2.0 | 5.0 | 0.00 | 0.03 | 0.03 | 79 | 1008.2 |
| 20260903065246 | 58 | 51 | 1.0 | 1.0 | 0.00 | 0.03 | 0.03 | 80 | 1008.1 |
| 20260903064745 | 59 | 5 | 0.0 | 0.0 | 0.00 | 0.03 | 0.03 | 77 | 1008.4 |
| 20260903064240 | 59 | 4 | 0.0 | 0.0 | 0.00 | 0.03 | 0.03 | 76 | 1008.1 |
| 20260903063737 | 59 | 342 | 0.0 | 1.0 | 0.00 | 0.03 | 0.03 | 76 | 1008.1 |
| 20260903063231 | 60 | 9 | 1.0 | 1.0 | 0.00 | 0.03 | 0.03 | 74 | 1008.1 |
| 20260903062727 | 59 | 72 | 4.0 | 6.0 | 0.00 | 0.03 | 0.03 | 75 | 1008.0 |
| 20260903062227 | 60 | 100 | 1.0 | 1.0 | 0.00 | 0.03 | 0.03 | 75 | 1008.1 |
| 20260903061723 | 60 | 153 | 2.0 | 3.0 | 0.00 | 0.03 | 0.03 | 74 | 1008.0 |
| 20260903061221 | 60 | 19 | 2.0 | 2.0 | 0.00 | 0.03 | 0.03 | 73 | 1007.9 |
| 20260903060717 | 60 | 188 | 4.0 | 6.0 | 0.00 | 0.03 | 0.03 | 74 | 1007.9 |
| 20260903060212 | 60 | 211 | 2.0 | 2.0 | 0.00 | 0.03 | 0.03 | 73 | 1008.1 |
| 20260903055709 | 61 | 316 | 0.0 | 0.0 | 0.00 | 0.03 | 0.03 | 73 | 1008.1 |
| 20260903055208 | 60 | 20 | 2.0 | 2.0 | 0.00 | 0.03 | 0.03 | 74 | 1008.4 |
| 20260903054702 | 61 | 102 | 3.0 | 5.0 | 0.00 | 0.03 | 0.03 | 73 | 1008.1 |
| 20260903054153 | 61 | 190 | 1.0 | 3.0 | 0.00 | 0.03 | 0.03 | 73 | 1008.3 |
| 20260903053649 | 61 | 175 | 5.0 | 7.0 | 0.00 | 0.03 | 0.03 | 72 | 1008.3 |
| 20260903053144 | 61 | 16 | 2.0 | 2.0 | 0.00 | 0.03 | 0.03 | 71 | 1008.3 |
| 20260903052640 | 61 | 160 | 5.0 | 6.0 | 0.00 | 0.03 | 0.03 | 71 | 1008.3 |
| 20260903052135 | 61 | 67 | 1.0 | 2.0 | 0.00 | 0.03 | 0.03 | 71 | 1008.0 |
| 20260903051630 | 61 | 12 | 5.0 | 7.0 | 0.00 | 0.03 | 0.03 | 70 | 1008.0 |
| 20260903051126 | 61 | 30 | 3.0 | 6.0 | 0.00 | 0.03 | 0.03 | 71 | 1007.8 |
| 20260903050625 | 61 | 96 | 3.0 | 3.0 | 0.00 | 0.03 | 0.03 | 70 | 1007.9 |
| 20260903050120 | 62 | 145 | 3.0 | 5.0 | 0.00 | 0.03 | 0.03 | 69 | 1007.9 |
| 20260903045620 | 62 | 30 | 4.0 | 5.0 | 0.00 | 0.03 | 0.03 | 69 | 1008.0 |
| 20260903045117 | 62 | 247 | 2.0 | 5.0 | 0.00 | 0.03 | 0.03 | 69 | 1007.7 |
| 20260903044612 | 62 | 28 | 2.0 | 5.0 | 0.00 | 0.03 | 0.03 | 69 | 1007.7 |
| 20260903044108 | 62 | 77 | 2.0 | 3.0 | 0.00 | 0.03 | 0.03 | 69 | 1007.6 |
| 20260903043604 | 62 | 291 | 1.0 | 1.0 | 0.00 | 0.03 | 0.03 | 70 | 1007.5 |
| 20260903043103 | 62 | 171 | 3.0 | 5.0 | 0.00 | 0.03 | 0.03 | 71 | 1007.4 |
| 20260903042557 | 61 | 342 | 0.0 | 0.0 | 0.00 | 0.03 | 0.03 | 72 | 1007.2 |
| 20260903042053 | 61 | 2 | 1.0 | 1.0 | 0.00 | 0.03 | 0.03 | 74 | 1007.1 |
| 20260903041549 | 62 | 63 | 2.0 | 2.0 | 0.00 | 0.03 | 0.03 | 74 | 1007.0 |
| 20260903041044 | 62 | 204 | 5.0 | 7.0 | 0.00 | 0.03 | 0.03 | 75 | 1006.7 |
| 20260903040543 | 62 | 195 | 3.0 | 5.0 | 0.00 | 0.03 | 0.03 | 75 | 1006.7 |
| 20260903040040 | 62 | 111 | 6.0 | 7.0 | 0.00 | 0.03 | 0.03 | 75 | 1006.5 |
| 20260903035540 | 62 | 123 | 5.0 | 6.0 | 0.00 | 0.03 | 0.03 | 76 | 1006.3 |
| 20260903035036 | 61 | 29 | 1.0 | 2.0 | 0.00 | 0.03 | 0.03 | 80 | 1006.4 |
| 20260903034531 | 61 | 38 | 0.0 | 1.0 | 0.00 | 0.03 | 0.03 | 81 | 1006.4 |
| 20260903034026 | 61 | 335 | 0.0 | 1.0 | 0.00 | 0.03 | 0.03 | 80 | 1006.2 |
| 20260903033521 | 61 | 113 | 3.0 | 3.0 | 0.00 | 0.03 | 0.03 | 80 | 1005.8 |
| 20260903033017 | 61 | 112 | 1.0 | 1.0 | 0.00 | 0.03 | 0.03 | 82 | 1005.9 |
| 20260903032512 | 61 | 165 | 2.0 | 2.0 | 0.00 | 0.03 | 0.03 | 85 | 1005.9 |
| 20260903032007 | 60 | 332 | 0.0 | 0.0 | 0.00 | 0.03 | 0.03 | 85 | 1005.8 |
| 20260903031507 | 60 | 156 | 3.0 | 5.0 | 0.00 | 0.03 | 0.03 | 87 | 1005.6 |
| 20260903031002 | 60 | 128 | 4.0 | 5.0 | 0.00 | 0.03 | 0.03 | 86 | 1005.4 |
| 20260903030457 | 60 | 170 | 5.0 | 6.0 | 0.00 | 0.03 | 0.03 | 84 | 1005.1 |
| 20260903025953 | 61 | 64 | 1.0 | 1.0 | 0.00 | 0.03 | 0.03 | 82 | 1005.2 |
| 20260903025449 | 60 | 156 | 3.0 | 3.0 | 0.00 | 0.03 | 0.03 | 84 | 1005.0 |
| 20260903024944 | 60 | 204 | 2.0 | 3.0 | 0.00 | 0.03 | 0.03 | 86 | 1005.1 |
| 20260903024443 | 60 | 294 | 3.0 | 5.0 | 0.00 | 0.03 | 0.03 | 86 | 1005.1 |
| 20260903023938 | 60 | 344 | 0.0 | 0.0 | 0.00 | 0.03 | 0.03 | 87 | 1004.9 |
| 20260903023434 | 60 | 1 | 1.0 | 1.0 | 0.00 | 0.03 | 0.03 | 90 | 1005.0 |
| 20260903022929 | 60 | 0 | 0.0 | 1.0 | 0.00 | 0.03 | 0.03 | 90 | 1005.1 |
| 20260903022428 | 61 | 163 | 1.0 | 2.0 | 0.00 | 0.03 | 0.03 | 86 | 1005.0 |
| 20260903021926 | 60 | 116 | 1.0 | 2.0 | 0.00 | 0.03 | 0.03 | 86 | 1005.0 |
| 20260903021422 | 61 | 273 | 0.0 | 0.0 | 0.00 | 0.03 | 0.03 | 87 | 1005.0 |
| 20260903020917 | 61 | 167 | 3.0 | 3.0 | 0.00 | 0.03 | 0.03 | 86 | 1005.0 |
| 20260903020412 | 61 | 292 | 1.0 | 1.0 | 0.00 | 0.03 | 0.03 | 88 | 1005.1 |
| 20260903015907 | 60 | 76 | 5.0 | 7.0 | 0.00 | 0.03 | 0.03 | 86 | 1005.2 |
| 20260903015403 | 61 | 227 | 2.0 | 3.0 | 0.00 | 0.03 | 0.03 | 88 | 1004.8 |
| 20260903014858 | 61 | 137 | 5.0 | 6.0 | 0.00 | 0.03 | 0.03 | 88 | 1005.1 |
| 20260903014357 | 60 | 101 | 2.0 | 3.0 | 0.00 | 0.03 | 0.03 | 89 | 1005.0 |
| 20260903013852 | 60 | 110 | 3.0 | 3.0 | 0.00 | 0.03 | 0.03 | 90 | 1005.1 |
| 20260903013352 | 59 | 15 | 2.0 | 2.0 | 0.00 | 0.03 | 0.03 | 91 | 1005.5 |
| 20260903012851 | 59 | 357 | 1.0 | 1.0 | 0.00 | 0.03 | 0.03 | 92 | 1005.2 |
| 20260903012351 | 59 | 30 | 1.0 | 1.0 | 0.00 | 0.03 | 0.03 | 94 | 1005.0 |
| 20260903011849 | 59 | 330 | 0.0 | 1.0 | 0.00 | 0.03 | 0.03 | 94 | 1005.3 |
| 20260903011344 | 59 | 131 | 1.0 | 1.0 | 0.00 | 0.03 | 0.03 | 94 | 1005.0 |
| 20260903010840 | 59 | 325 | 2.0 | 2.0 | 0.05 | 0.03 | 0.03 | 94 | 1004.8 |
| 20260903010335 | 59 | 322 | 0.0 | 0.0 | 0.05 | 0.03 | 0.03 | 94 | 1005.3 |
| 20260903005833 | 59 | 169 | 4.0 | 6.0 | 0.07 | 0.02 | 0.02 | 94 | 1005.2 |
| 20260903005329 | 59 | 316 | 0.0 | 0.0 | 0.07 | 0.02 | 0.02 | 94 | 1004.8 |
| 20260903004824 | 60 | 141 | 2.0 | 2.0 | 0.00 | 0.01 | 0.01 | 92 | 1005.2 |
| 20260903004320 | 60 | 80 | 2.0 | 3.0 | 0.05 | 0.01 | 0.01 | 90 | 1005.2 |
| 20260903003816 | 60 | 3 | 0.0 | 1.0 | 0.05 | 0.01 | 0.01 | 89 | 1004.8 |
| 20260903003310 | 61 | 51 | 5.0 | 6.0 | 0.00 | 0.00 | 0.00 | 87 | 1005.2 |
| 20260903002810 | 62 | 125 | 7.0 | 9.0 | 0.00 | 0.00 | 0.00 | 83 | 1005.1 |
| 20260903002309 | 63 | 65 | 3.0 | 3.0 | 0.00 | 0.00 | 0.00 | 81 | 1004.9 |
| 20260903001804 | 63 | 87 | 4.0 | 5.0 | 0.00 | 0.00 | 0.00 | 78 | 1005.0 |
| 20260903001259 | 64 | 124 | 4.0 | 5.0 | 0.00 | 0.00 | 0.00 | 74 | 1004.8 |
| 20260903000754 | 65 | 99 | 2.0 | 3.0 | 0.00 | 0.00 | 0.00 | 70 | 1004.7 |
| 20260903000249 | 66 | 98 | 2.0 | 3.0 | 0.00 | 0.00 | 0.00 | 68 | 1004.6 |
| 20260902235747 | 66 | 130 | 3.0 | 5.0 | 0.00 | 0.00 | 0.00 | 67 | 1004.6 |
| 20260902235243 | 66 | 357 | 3.0 | 5.0 | 0.00 | 0.00 | 0.00 | 66 | 1004.4 |
| 20260902234742 | 67 | 45 | 7.0 | 9.0 | 0.00 | 0.00 | 0.00 | 66 | 1004.4 |
| 20260902234242 | 67 | 5 | 1.0 | 1.0 | 0.00 | 0.00 | 0.00 | 65 | 1004.1 |
| 20260902233742 | 67 | 92 | 1.0 | 1.0 | 0.00 | 0.00 | 0.00 | 65 | 1004.2 |
| 20260902233236 | 67 | 260 | 1.0 | 1.0 | 0.00 | 0.00 | 0.00 | 64 | 1004.1 |
| 20260902232735 | 68 | 239 | 2.0 | 2.0 | 0.00 | 0.00 | 0.00 | 64 | 1004.2 |
| 20260902232235 | 68 | 78 | 2.0 | 2.0 | 0.00 | 0.00 | 0.00 | 63 | 1004.3 |
| 20260902231734 | 67 | 81 | 2.0 | 3.0 | 0.00 | 0.00 | 0.00 | 63 | 1004.1 |
| 20260902231230 | 67 | 157 | 5.0 | 8.0 | 0.00 | 0.00 | 0.00 | 64 | 1004.2 |
| 20260902230724 | 68 | 139 | 7.0 | 10.0 | 0.00 | 0.00 | 0.00 | 63 | 1004.2 |
| 20260902230223 | 68 | 123 | 0.0 | 1.0 | 0.00 | 0.00 | 0.00 | 65 | 1004.3 |
| 20260902225718 | 68 | 68 | 5.0 | 6.0 | 0.00 | 0.00 | 0.00 | 62 | 1004.2 |
| 20260902225218 | 68 | 156 | 3.0 | 3.0 | 0.00 | 0.00 | 0.00 | 62 | 1004.0 |
| 20260902224717 | 69 | 331 | 0.0 | 0.0 | 0.00 | 0.00 | 0.00 | 64 | 1004.1 |
| 20260902224212 | 69 | 5 | 0.0 | 1.0 | 0.00 | 0.00 | 0.00 | 61 | 1004.0 |
| 20260902223708 | 69 | 305 | 0.0 | 0.0 | 0.00 | 0.00 | 0.00 | 62 | 1004.3 |
| 20260902223208 | 69 | 168 | 4.0 | 5.0 | 0.00 | 0.00 | 0.00 | 60 | 1004.1 |
| 20260902222707 | 69 | 297 | 2.0 | 5.0 | 0.00 | 0.00 | 0.00 | 60 | 1004.1 |
| 20260902222201 | 70 | 42 | 4.0 | 6.0 | 0.00 | 0.00 | 0.00 | 57 | 1004.0 |
| 20260902221655 | 70 | 191 | 3.0 | 3.0 | 0.00 | 0.00 | 0.00 | 57 | 1003.8 |
| 20260902221154 | 70 | 69 | 4.0 | 5.0 | 0.00 | 0.00 | 0.00 | 56 | 1004.0 |
| 20260902220650 | 70 | 218 | 3.0 | 3.0 | 0.00 | 0.00 | 0.00 | 55 | 1004.1 |
| 20260902220145 | 70 | 88 | 3.0 | 3.0 | 0.00 | 0.00 | 0.00 | 55 | 1004.1 |
| 20260902215641 | 70 | 147 | 4.0 | 5.0 | 0.00 | 0.00 | 0.00 | 55 | 1004.0 |
| 20260902215136 | 70 | 140 | 1.0 | 2.0 | 0.00 | 0.00 | 0.00 | 56 | 1004.2 |
| 20260902214631 | 70 | 297 | 3.0 | 3.0 | 0.00 | 0.00 | 0.00 | 55 | 1004.3 |
| 20260902214130 | 70 | 211 | 6.0 | 7.0 | 0.00 | 0.00 | 0.00 | 54 | 1004.3 |
| 20260902213626 | 71 | 19 | 4.0 | 6.0 | 0.00 | 0.00 | 0.00 | 56 | 1004.3 |
| 20260902213125 | 71 | 265 | 1.0 | 1.0 | 0.00 | 0.00 | 0.00 | 56 | 1004.4 |
| 20260902212621 | 71 | 208 | 3.0 | 5.0 | 0.00 | 0.00 | 0.00 | 56 | 1004.1 |
| 20260902212117 | 71 | 165 | 4.0 | 5.0 | 0.00 | 0.00 | 0.00 | 56 | 1004.2 |
| 20260902211613 | 71 | 189 | 2.0 | 2.0 | 0.00 | 0.00 | 0.00 | 57 | 1004.4 |
| 20260902211108 | 71 | 20 | 4.0 | 5.0 | 0.00 | 0.00 | 0.00 | 55 | 1004.4 |
| 20260902210607 | 71 | 105 | 2.0 | 2.0 | 0.00 | 0.00 | 0.00 | 55 | 1004.5 |